Location: Brno
(49.2000°N, 16.6330°E)
Time: 17:38:45
(UTC+02:00)

Meteor 1-4 Rocket - Visible Passes

Search period start: 03 July 2015 00:00
Search period end: 13 July 2015 00:00
Orbit: 460 x 522 km, 81.2° (Epoch: 02 July)

Date Brightness Start Highest point End Pass type
(mag) Time Alt. Az. Time Alt. Az. Time Alt. Az.
03 Jul 5.4 00:53:01 10° NE 00:54:12 11° ENE 00:55:31 10° E visible
03 Jul 2.5 02:26:25 10° NNW 02:30:05 70° W 02:31:58 27° S visible
04 Jul 2.6 02:03:46 10° N 02:07:27 79° ENE 02:09:14 29° SSE visible
05 Jul 3.1 01:41:09 10° N 01:44:47 54° ENE 01:46:32 27° SE visible
05 Jul 4.8 03:17:56 10° WNW 03:19:46 13° W 03:21:01 11° WSW visible
06 Jul 3.8 01:18:37 10° N 01:22:05 37° ENE 01:23:50 23° SE visible
06 Jul 4.4 02:54:36 10° NW 02:57:14 18° W 02:58:20 16° WSW visible
07 Jul 4.3 00:56:09 10° N 00:59:20 27° ENE 01:01:11 18° ESE visible
07 Jul 4.0 02:31:32 10° NW 02:34:40 25° W 02:35:40 22° WSW visible
08 Jul 4.7 00:33:47 10° NNE 00:36:33 20° ENE 00:38:31 14° ESE visible
08 Jul 3.5 02:08:37 10° NNW 02:12:04 36° W 02:13:01 30° SW visible
09 Jul 5.1 00:11:36 10° NNE 00:13:43 15° ENE 00:15:52 10° E visible
09 Jul 2.9 01:45:48 10° NNW 01:49:27 52° W 01:50:22 40° SW visible
09 Jul 5.3 23:49:53 10° NE 23:50:51 11° ENE 23:51:59 10° ENE visible
10 Jul 2.6 01:23:03 10° NNW 01:26:48 77° W 01:27:44 49° S visible
11 Jul 2.7 01:00:22 10° N 01:04:08 73° ENE 01:05:06 47° SSE visible
11 Jul 5.1 02:38:24 10° WNW 02:39:00 10° W 02:39:23 10° W visible
12 Jul 3.2 00:37:44 10° N 00:41:25 50° ENE 00:42:30 37° ESE visible
12 Jul 4.8 02:14:15 10° NW 02:16:26 15° W 02:16:59 14° W visible
